TimeCEST,TemperatureF,Dew PointF,Humidity,Sea Level PressureIn,VisibilityMPH,Wind Direction,Wind SpeedMPH,Gust SpeedMPH,PrecipitationIn,Events,Conditions,WindDirDegrees,DateUTC
12:00 AM,55.4,53.6,94,29.83,6.2,Calm,Calm,-,N/A,,Scattered Clouds,0,2013-09-29 22:00:00
12:30 AM,55.4,53.6,94,29.83,6.2,Calm,Calm,-,N/A,,Scattered Clouds,0,2013-09-29 22:30:00
1:00 AM,51.8,50.0,94,29.80,6.2,Variable,1.2,-,N/A,,Scattered Clouds,0,2013-09-29 23:00:00
1:30 AM,51.8,51.8,100,29.80,6.2,Variable,2.3,-,N/A,,Scattered Clouds,0,2013-09-29 23:30:00
2:00 AM,53.6,51.8,94,29.80,6.2,Variable,1.2,-,N/A,,Scattered Clouds,0,2013-09-30 00:00:00
2:30 AM,59.0,55.4,88,29.77,6.2,Variable,2.3,-,N/A,,Scattered Clouds,0,2013-09-30 00:30:00
3:00 AM,60.8,55.4,82,29.77,6.2,SSW,9.2,-,N/A,,Scattered Clouds,210,2013-09-30 01:00:00
3:30 AM,60.8,55.4,82,29.77,6.2,SSW,12.7,-,N/A,,Scattered Clouds,210,2013-09-30 01:30:00
4:00 AM,60.8,55.4,82,29.74,6.2,SSW,9.2,-,N/A,,Scattered Clouds,210,2013-09-30 02:00:00
4:30 AM,60.8,55.4,82,29.74,6.2,SSW,8.1,-,N/A,,Scattered Clouds,210,2013-09-30 02:30:00
5:00 AM,62.6,55.4,77,29.74,6.2,SW,5.8,-,N/A,,Scattered Clouds,220,2013-09-30 03:00:00
5:30 AM,62.6,55.4,77,29.74,6.2,South,4.6,-,N/A,,Scattered Clouds,180,2013-09-30 03:30:00
6:00 AM,62.6,55.4,77,29.74,6.2,SSW,10.4,-,N/A,,Scattered Clouds,210,2013-09-30 04:00:00
6:30 AM,62.6,55.4,77,29.74,6.2,SW,13.8,-,N/A,,Scattered Clouds,220,2013-09-30 04:30:00
7:00 AM,62.6,57.2,82,29.74,6.2,SW,16.1,-,N/A,,Scattered Clouds,220,2013-09-30 05:00:00
7:30 AM,62.6,57.2,82,29.74,6.2,SW,10.4,-,N/A,,Scattered Clouds,230,2013-09-30 05:30:00
8:00 AM,62.6,57.2,82,29.74,6.2,SW,10.4,-,N/A,,Scattered Clouds,220,2013-09-30 06:00:00
8:30 AM,62.6,57.2,82,29.74,6.2,SW,9.2,-,N/A,,Scattered Clouds,230,2013-09-30 06:30:00
9:00 AM,64.4,57.2,77,29.74,6.2,SW,13.8,-,N/A,,Scattered Clouds,230,2013-09-30 07:00:00
9:30 AM,64.4,55.4,73,29.77,6.2,SW,10.4,-,N/A,,Partly Cloudy,230,2013-09-30 07:30:00
10:00 AM,66.2,57.2,73,29.77,6.2,SW,12.7,-,N/A,,Partly Cloudy,230,2013-09-30 08:00:00
10:30 AM,69.8,57.2,64,29.77,6.2,WSW,15.0,-,N/A,,Partly Cloudy,240,2013-09-30 08:30:00
11:00 AM,69.8,57.2,64,29.77,6.2,WSW,15.0,-,N/A,,Partly Cloudy,240,2013-09-30 09:00:00
11:30 AM,71.6,55.4,57,29.77,6.2,SW,11.5,-,N/A,,Partly Cloudy,230,2013-09-30 09:30:00
12:00 PM,73.4,57.2,57,29.77,6.2,SW,11.5,-,N/A,,Scattered Clouds,220,2013-09-30 10:00:00
12:30 PM,75.2,55.4,50,29.77,6.2,WSW,11.5,-,N/A,,Scattered Clouds,240,2013-09-30 10:30:00
1:00 PM,73.4,53.6,50,29.77,6.2,West,9.2,-,N/A,,Mostly Cloudy,260,2013-09-30 11:00:00
1:30 PM,77.0,53.6,44,29.77,6.2,SW,9.2,-,N/A,,Mostly Cloudy,230,2013-09-30 11:30:00
2:00 PM,77.0,55.4,47,29.77,6.2,SW,12.7,-,N/A,,Mostly Cloudy,230,2013-09-30 12:00:00
2:30 PM,77.0,55.4,47,29.77,6.2,SW,11.5,-,N/A,,Mostly Cloudy,230,2013-09-30 12:30:00
3:00 PM,80.6,55.4,42,29.77,6.2,SW,15.0,-,N/A,,Mostly Cloudy,230,2013-09-30 13:00:00
3:30 PM,77.0,55.4,47,29.77,6.2,SW,16.1,-,N/A,,Mostly Cloudy,230,2013-09-30 13:30:00
4:00 PM,78.8,55.4,44,29.77,6.2,SW,16.1,-,N/A,,Mostly Cloudy,220,2013-09-30 14:00:00
4:30 PM,75.2,55.4,50,29.77,6.2,SW,15.0,-,N/A,,Mostly Cloudy,230,2013-09-30 14:30:00
5:00 PM,75.2,53.6,47,29.77,6.2,SW,12.7,-,N/A,,Scattered Clouds,220,2013-09-30 15:00:00
5:30 PM,77.0,55.4,47,29.77,6.2,SW,15.0,-,N/A,,Scattered Clouds,220,2013-09-30 15:30:00
6:00 PM,77.0,55.4,47,29.77,6.2,SW,13.8,-,N/A,,Scattered Clouds,220,2013-09-30 16:00:00
6:30 PM,73.4,55.4,53,29.77,6.2,SW,10.4,-,N/A,,Scattered Clouds,220,2013-09-30 16:30:00
7:00 PM,73.4,53.6,50,29.77,6.2,SW,10.4,-,N/A,,Partly Cloudy,230,2013-09-30 17:00:00
7:30 PM,71.6,53.6,53,29.77,6.2,SW,9.2,-,N/A,,Partly Cloudy,230,2013-09-30 17:30:00
8:00 PM,69.8,53.6,56,29.77,6.2,SW,8.1,-,N/A,,Partly Cloudy,220,2013-09-30 18:00:00
8:30 PM,69.8,53.6,56,29.77,6.2,SW,6.9,-,N/A,,Partly Cloudy,230,2013-09-30 18:30:00
9:00 PM,68.0,53.6,60,29.77,6.2,SW,3.5,-,N/A,,Partly Cloudy,220,2013-09-30 19:00:00
9:30 PM,66.2,55.4,68,29.77,6.2,WSW,3.5,-,N/A,,Partly Cloudy,240,2013-09-30 19:30:00
10:00 PM,68.0,55.4,64,29.77,6.2,WSW,5.8,-,N/A,,Partly Cloudy,250,2013-09-30 20:00:00
10:30 PM,66.2,53.6,64,29.80,6.2,SW,3.5,-,N/A,,Partly Cloudy,230,2013-09-30 20:30:00
11:00 PM,66.2,55.4,68,29.80,6.2,SW,3.5,-,N/A,,Partly Cloudy,230,2013-09-30 21:00:00
11:30 PM,60.8,53.6,77,29.80,6.2,Calm,Calm,-,N/A,,Partly Cloudy,0,2013-09-30 21:30:00